EW8576 Weather Reports


Display with metric or nautical units.
time (UTC)temp
F
wind
direction
speed
MPH
gust
MPH
rain 1hr
in
rain 24hr
in
rain mn
in
humidity
%
barometer
mb
20210623232441 67 293 0.0 0.0 0.00 0.00 0.00 60 1021.5
20210623231939 68 293 0.0 0.0 0.00 0.00 0.00 57 1021.5
20210623231428 68 293 0.0 0.0 0.00 0.00 0.00 54 1021.5
20210623230927 69 293 0.0 0.0 0.00 0.00 0.00 53 1021.4
20210623230412 69 293 0.0 0.0 0.00 0.00 0.00 53 1021.3
20210623225906 70 293 0.0 0.0 0.00 0.00 0.00 51 1021.2
20210623225400 71 293 0.0 0.0 0.00 0.00 0.00 49 1021.1
20210623224854 72 293 0.0 0.0 0.00 0.00 0.00 49 1021.0
20210623224342 73 293 0.0 0.0 0.00 0.00 0.00 44 1021.0
20210623223840 74 294 0.0 0.0 0.00 0.00 0.00 43 1020.9
20210623223331 75 294 0.0 0.0 0.00 0.00 0.00 37 1020.8
20210623222813 75 292 0.0 0.0 0.00 0.00 0.00 43 1020.7
20210623222246 74 292 0.0 0.0 0.00 0.00 0.00 40 1020.6
20210623221744 74 292 0.0 0.0 0.00 0.00 0.00 36 1020.7
20210623221233 74 292 0.0 0.0 0.00 0.00 0.00 37 1020.7
20210623220723 75 315 0.0 0.0 0.00 0.00 0.00 37 1020.6
20210623220208 75 38 0.0 0.0 0.00 0.00 0.00 44 1020.6
20210623215654 74 82 0.0 0.0 0.00 0.00 0.00 44 1020.5
20210623215149 74 22 0.0 0.0 0.00 0.00 0.00 42 1020.5
20210623214642 73 65 0.0 0.0 0.00 0.00 0.00 39 1020.5
20210623214138 73 65 0.0 0.0 0.00 0.00 0.00 45 1020.5
20210623213624 73 65 0.0 0.0 0.00 0.00 0.00 47 1020.6
20210623213106 73 65 0.0 1.0 0.00 0.00 0.00 51 1020.5
20210623212600 73 65 0.0 7.0 0.00 0.00 0.00 43 1020.4
20210623212059 74 75 0.0 7.0 0.00 0.00 0.00 45 1020.5
20210623211557 73 144 0.0 0.0 0.00 0.00 0.00 42 1020.4
20210623211045 73 148 0.0 0.0 0.00 0.00 0.00 44 1020.4
20210623210543 73 148 0.0 1.0 0.00 0.00 0.00 48 1020.4
20210623210033 73 114 0.0 4.0 0.00 0.00 0.00 44 1020.4
20210623205530 73 120 0.0 4.0 0.00 0.00 0.00 52 1020.4
20210623205029 73 66 0.0 4.0 0.00 0.00 0.00 49 1020.4
20210623204522 72 65 0.0 0.0 0.00 0.00 0.00 48 1020.4
20210623204021 72 71 3.0 13.0 0.00 0.00 0.00 49 1020.5
20210623203514 73 136 3.0 13.0 0.00 0.00 0.00 44 1020.4
20210623203009 74 277 1.0 9.0 0.00 0.00 0.00 41 1020.2
20210623202506 74 296 1.0 7.0 0.00 0.00 0.00 39 1020.3
20210623202002 74 232 0.0 7.0 0.00 0.00 0.00 37 1020.4
20210623201500 73 63 0.0 6.0 0.00 0.00 0.00 46 1020.3
20210623200958 73 63 0.0 6.0 0.00 0.00 0.00 45 1020.3
20210623200453 74 159 1.0 7.0 0.00 0.00 0.00 42 1020.4
20210623195951 74 80 1.0 7.0 0.00 0.00 0.00 41 1020.3
20210623195448 73 103 0.0 3.0 0.00 0.00 0.00 48 1020.2
20210623194945 73 120 1.0 7.0 0.00 0.00 0.00 45 1020.1
20210623194442 72 57 1.0 7.0 0.00 0.00 0.00 45 1020.2
20210623193937 72 66 0.0 8.0 0.00 0.00 0.00 43 1020.2
20210623193430 72 59 0.0 8.0 0.00 0.00 0.00 43 1020.2
20210623192929 73 78 0.0 2.0 0.00 0.00 0.00 46 1020.2
20210623191924 73 311 1.0 6.0 0.00 0.00 0.00 42 1020.2
20210623191422 72 355 1.0 6.0 0.00 0.00 0.00 44 1020.2
20210623190921 72 90 1.0 6.0 0.00 0.00 0.00 42 1020.3
20210623190418 72 105 0.0 1.0 0.00 0.00 0.00 48 1020.2
20210623185917 72 317 0.0 6.0 0.00 0.00 0.00 40 1020.3
20210623185408 72 236 0.0 6.0 0.00 0.00 0.00 41 1020.2
20210623184854 72 98 0.0 6.0 0.00 0.00 0.00 43 1020.2
20210623184353 72 70 0.0 7.0 0.00 0.00 0.00 43 1020.2
20210623183850 72 295 0.0 7.0 0.00 0.00 0.00 49 1020.2
20210623183348 72 68 0.0 6.0 0.00 0.00 0.00 48 1020.1
20210623182847 71 52 0.0 1.0 0.00 0.00 0.00 51 1020.2
20210623182343 71 294 0.0 1.0 0.00 0.00 0.00 48 1020.3
20210623181842 71 306 0.0 5.0 0.00 0.00 0.00 45 1020.2
20210623181340 71 115 0.0 6.0 0.00 0.00 0.00 49 1020.1
20210623180834 71 38 0.0 6.0 0.00 0.00 0.00 48 1020.2
20210623180302 71 304 0.0 6.0 0.00 0.00 0.00 49 1020.1
20210623175800 71 292 0.0 6.0 0.00 0.00 0.00 47 1020.1
20210623175258 71 248 0.0 2.0 0.00 0.00 0.00 46 1020.2
20210623174751 70 243 1.0 7.0 0.00 0.00 0.00 45 1020.3
20210623174250 70 249 1.0 7.0 0.00 0.00 0.00 47 1020.3
20210623173748 70 245 1.0 6.0 0.00 0.00 0.00 49 1020.2
20210623173246 69 225 0.0 0.0 0.00 0.00 0.00 48 1020.1
20210623172743 70 344 1.0 7.0 0.00 0.00 0.00 45 1020.2
20210623172236 70 106 2.0 11.0 0.00 0.00 0.00 50 1020.1
20210623171722 70 112 1.0 11.0 0.00 0.00 0.00 48 1020.0
20210623171220 70 345 0.0 4.0 0.00 0.00 0.00 46 1020.0
20210623170711 69 88 0.0 4.0 0.00 0.00 0.00 48 1020.1
20210623170200 69 282 0.0 0.0 0.00 0.00 0.00 46 1020.1
20210623165658 70 87 0.0 0.0 0.00 0.00 0.00 46 1020.0
20210623165156 70 113 0.0 0.0 0.00 0.00 0.00 52 1019.9
20210623164648 69 113 1.0 8.0 0.00 0.00 0.00 54 1019.9
20210623164146 70 62 1.0 8.0 0.00 0.00 0.00 46 1019.9
20210623163645 70 66 0.0 6.0 0.00 0.00 0.00 50 1019.9
20210623163142 69 18 0.0 4.0 0.00 0.00 0.00 53 1019.9
20210623162635 69 331 0.0 1.0 0.00 0.00 0.00 50 1019.8
20210623162133 68 12 0.0 2.0 0.00 0.00 0.00 49 1019.8
20210623161620 69 295 0.0 6.0 0.00 0.00 0.00 48 1019.8
20210623161117 69 178 0.0 6.0 0.00 0.00 0.00 47 1019.8
20210623160616 69 142 0.0 1.0 0.00 0.00 0.00 53 1019.8
20210623160114 69 113 0.0 7.0 0.00 0.00 0.00 49 1019.7
20210623155611 68 111 1.0 7.0 0.00 0.00 0.00 50 1019.8
20210623155103 68 313 2.0 9.0 0.00 0.00 0.00 53 1019.7
20210623154554 68 284 2.0 9.0 0.00 0.00 0.00 48 1019.8
20210623154052 68 257 2.0 8.0 0.00 0.00 0.00 47 1019.8
20210623153550 69 284 1.0 9.0 0.00 0.00 0.00 50 1019.8
20210623153048 69 342 3.0 10.0 0.00 0.00 0.00 49 1019.8
20210623152546 68 65 2.0 10.0 0.00 0.00 0.00 53 1019.8
20210623152044 68 96 1.0 6.0 0.00 0.00 0.00 55 1019.8
20210623151542 68 241 1.0 2.0 0.00 0.00 0.00 47 1019.8
20210623151040 68 60 1.0 5.0 0.00 0.00 0.00 55 1019.8
20210623150537 67 39 1.0 5.0 0.00 0.00 0.00 59 1019.7
20210623150035 67 47 1.0 8.0 0.00 0.00 0.00 57 1019.7
20210623145531 67 9 2.0 8.0 0.00 0.00 0.00 58 1019.7
20210623145030 66 117 1.0 5.0 0.00 0.00 0.00 52 1019.6
20210623144528 66 9 2.0 7.0 0.00 0.00 0.00 56 1019.6
20210623144026 66 270 2.0 7.0 0.00 0.00 0.00 51 1019.6
20210623143524 66 187 1.0 6.0 0.00 0.00 0.00 52 1019.6
20210623143018 66 66 1.0 4.0 0.00 0.00 0.00 55 1019.6
20210623142516 65 159 1.0 5.0 0.00 0.00 0.00 60 1019.7
20210623142014 65 261 1.0 5.0 0.00 0.00 0.00 56 1019.8
20210623141513 65 254 2.0 7.0 0.00 0.00 0.00 56 1019.7
20210623141010 65 217 2.0 7.0 0.00 0.00 0.00 56 1019.7
20210623140506 64 200 1.0 7.0 0.00 0.00 0.00 56 1019.6
20210623140000 64 217 1.0 4.0 0.00 0.00 0.00 54 1019.6
20210623135454 64 248 1.0 5.0 0.00 0.00 0.00 60 1019.6
20210623134951 63 244 2.0 6.0 0.00 0.00 0.00 57 1019.6
20210623134446 63 254 3.0 6.0 0.00 0.00 0.00 57 1019.6
20210623133943 64 253 2.0 6.0 0.00 0.00 0.00 59 1019.6
20210623133437 64 345 1.0 3.0 0.00 0.00 0.00 61 1019.5
20210623132936 63 22 1.0 6.0 0.00 0.00 0.00 62 1019.5
20210623132437 62 287 2.0 6.0 0.00 0.00 0.00 61 1019.5
20210623131932 62 298 1.0 5.0 0.00 0.00 0.00 65 1019.4
20210623131427 62 301 0.0 2.0 0.00 0.00 0.00 66 1019.3
20210623130927 61 229 1.0 5.0 0.00 0.00 0.00 72 1019.3
20210623130416 60 230 3.0 5.0 0.00 0.00 0.00 69 1019.2
20210623125913 60 287 3.0 6.0 0.00 0.00 0.00 68 1019.2
20210623125412 60 245 3.0 6.0 0.00 0.00 0.00 71 1019.3
20210623124910 60 274 4.0 6.0 0.00 0.00 0.00 69 1019.2
20210623124408 60 257 2.0 6.0 0.00 0.00 0.00 70 1019.2
20210623123905 59 229 2.0 6.0 0.00 0.00 0.00 73 1019.1
20210623123403 59 279 3.0 6.0 0.00 0.00 0.00 74 1019.1
20210623122858 59 236 3.0 6.0 0.00 0.00 0.00 75 1019.2
20210623122355 58 271 2.0 5.0 0.00 0.00 0.00 78 1019.1
20210623121847 58 280 1.0 4.0 0.00 0.00 0.00 75 1019.1
20210623121346 58 246 0.0 3.0 0.00 0.00 0.00 79 1019.0
20210623120844 57 245 1.0 4.0 0.00 0.00 0.00 80 1019.0
20210623120341 57 257 1.0 4.0 0.00 0.00 0.00 80 1018.9
20210623115840 56 254 2.0 6.0 0.00 0.00 0.00 81 1018.9
20210623115338 56 260 1.0 6.0 0.00 0.00 0.00 81 1018.9
20210623114835 56 248 1.0 5.0 0.00 0.00 0.00 84 1018.9
20210623114330 55 244 1.0 5.0 0.00 0.00 0.00 85 1018.7
20210623113824 55 260 0.0 2.0 0.00 0.00 0.00 89 1018.6
20210623113312 54 261 0.0 0.0 0.00 0.00 0.00 91 1018.6
20210623112807 53 261 0.0 0.0 0.00 0.00 0.00 93 1018.5
20210623112248 52 261 0.0 0.0 0.00 0.00 0.00 94 1018.5
20210623111746 52 261 0.0 0.0 0.00 0.00 0.00 95 1018.4
20210623111228 51 261 0.0 0.0 0.00 0.00 0.00 95 1018.2
20210623110651 51 261 0.0 0.0 0.00 0.00 0.00 95 1018.2
20210623110138 50 261 0.0 0.0 0.00 0.00 0.00 95 1018.1
20210623105631 50 261 0.0 0.0 0.00 0.00 0.00 96 1018.0
20210623105122 49 261 0.0 0.0 0.00 0.00 0.00 96 1018.0
20210623104607 49 261 0.0 0.0 0.00 0.00 0.00 96 1017.8
20210623104049 48 261 0.0 0.0 0.00 0.00 0.00 96 1017.7
20210623103545 48 261 0.0 0.0 0.00 0.00 0.00 96 1017.7
20210623103043 48 261 0.0 0.0 0.00 0.00 0.00 96 1017.7
20210623102528 47 261 0.0 0.0 0.00 0.00 0.00 96 1017.6
20210623102020 47 261 0.0 0.0 0.00 0.00 0.00 96 1017.6
20210623101459 47 261 0.0 0.0 0.00 0.00 0.00 95 1017.4
20210623100946 47 261 0.0 0.0 0.00 0.00 0.00 96 1017.4
20210623100418 47 261 0.0 0.0 0.00 0.00 0.00 95 1017.2
20210623095908 47 261 0.0 0.0 0.00 0.00 0.00 95 1017.1
20210623095353 47 261 0.0 0.0 0.00 0.00 0.00 95 1017.0
20210623094832 47 261 0.0 0.0 0.00 0.00 0.00 95 1016.9
20210623094329 46 261 0.0 0.0 0.00 0.00 0.00 95 1016.8
20210623093809 47 261 0.0 0.0 0.00 0.00 0.00 95 1016.7
20210623093248 46 261 0.0 0.0 0.00 0.00 0.00 95 1016.5
20210623092745 46 261 0.0 0.0 0.00 0.00 0.00 95 1016.5
20210623092244 46 261 0.0 0.0 0.00 0.00 0.00 95 1016.2
20210623091725 46 261 0.0 0.0 0.00 0.00 0.00 95 1016.2
20210623091215 46 261 0.0 0.0 0.00 0.00 0.00 95 1016.2
20210623090703 46 261 0.0 0.0 0.00 0.00 0.00 94 1016.2
20210623090150 47 261 0.0 0.0 0.00 0.00 0.00 94 1016.1
20210623085647 47 261 0.0 0.0 0.00 0.00 0.00 94 1016.0
20210623085145 47 261 0.0 0.0 0.00 0.00 0.00 94 1015.9
20210623084631 47 261 0.0 0.0 0.00 0.00 0.00 94 1015.8
20210623084125 47 261 0.0 0.0 0.00 0.00 0.00 94 1015.7
20210623083613 47 261 0.0 0.0 0.00 0.00 0.00 94 1015.7
20210623083052 47 261 0.0 0.0 0.00 0.00 0.00 94 1015.5
20210623082545 48 261 0.0 0.0 0.00 0.00 0.00 94 1015.5
20210623082037 48 261 0.0 0.0 0.00 0.00 0.00 94 1015.4
20210623081521 48 261 0.0 0.0 0.00 0.00 0.00 94 1015.3
20210623081010 48 261 0.0 0.0 0.00 0.00 0.00 94 1015.2
20210623080456 48 261 0.0 0.0 0.00 0.00 0.00 94 1015.2
20210623075953 48 261 0.0 0.0 0.00 0.00 0.00 94 1015.1
20210623075451 48 261 0.0 0.0 0.00 0.00 0.00 94 1015.1
20210623074942 48 261 0.0 0.0 0.00 0.00 0.00 94 1015.0
20210623074439 48 261 0.0 0.0 0.00 0.00 0.00 94 1014.9
20210623073930 49 261 0.0 0.0 0.00 0.00 0.00 93 1014.9
20210623073423 49 261 0.0 0.0 0.00 0.00 0.00 93 1014.7
20210623072920 49 262 0.0 0.0 0.00 0.00 0.00 93 1014.6
20210623072418 49 262 0.0 0.0 0.00 0.00 0.00 93 1014.5
20210623071915 49 262 0.0 0.0 0.00 0.00 0.00 93 1014.4
20210623071409 49 261 0.0 0.0 0.00 0.00 0.00 93 1014.4
20210623070907 49 262 0.0 0.0 0.00 0.00 0.00 93 1014.3
20210623070406 49 261 0.0 0.0 0.00 0.00 0.00 93 1014.3
20210623065903 49 262 0.0 0.0 0.00 0.00 0.00 93 1014.2
20210623065401 49 262 0.0 0.0 0.00 0.00 0.00 93 1014.2
20210623064859 49 261 0.0 0.0 0.00 0.00 0.00 93 1014.2
20210623064357 49 261 0.0 0.0 0.00 0.00 0.00 92 1014.1
20210623063851 50 262 0.0 0.0 0.00 0.00 0.00 92 1014.1
20210623063348 50 262 0.0 0.0 0.00 0.00 0.00 92 1014.0
20210623062845 50 262 0.0 0.0 0.00 0.00 0.00 92 1013.9
20210623062344 50 262 0.0 0.0 0.00 0.00 0.00 92 1013.9
20210623061825 50 262 0.0 0.0 0.00 0.00 0.00 92 1013.8
20210623061319 51 262 0.0 0.0 0.00 0.00 0.00 91 1013.7
20210623060805 51 262 0.0 0.0 0.00 0.00 0.00 91 1013.7
20210623060255 51 262 0.0 0.0 0.00 0.00 0.00 91 1013.7
20210623055752 51 262 0.0 0.0 0.00 0.00 0.00 90 1013.7
20210623055249 51 262 0.0 0.0 0.00 0.00 0.00 90 1013.7
20210623054747 52 293 0.0 0.0 0.00 0.00 0.00 89 1013.6
20210623054245 52 293 0.0 0.0 0.00 0.00 0.00 89 1013.6
20210623053735 52 293 0.0 0.0 0.00 0.00 0.00 88 1013.5
20210623053229 53 293 0.0 0.0 0.00 0.00 0.00 87 1013.6
20210623052727 53 293 0.0 0.0 0.00 0.00 0.00 87 1013.5
20210623052221 53 293 0.0 0.0 0.00 0.00 0.00 86 1013.4
20210623051711 53 293 0.0 2.0 0.00 0.00 0.00 86 1013.4
20210623051155 53 293 0.0 2.0 0.00 0.00 0.00 84 1013.4
20210623050653 53 293 0.0 2.0 0.00 0.00 0.00 85 1013.4
20210623050151 53 287 0.0 2.0 0.00 0.00 0.00 86 1013.3
20210623045650 54 236 0.0 6.0 0.00 0.00 0.00 87 1013.3
20210623045147 53 236 1.0 6.0 0.00 0.00 0.00 85 1013.3
20210623044641 53 333 0.0 4.0 0.00 0.00 0.00 89 1013.3
20210623044123 53 281 0.0 0.0 0.00 0.00 0.00 90 1013.1
20210623043621 54 281 0.0 1.0 0.00 0.00 0.00 90 1013.2
20210623043109 54 281 0.0 1.0 0.00 0.00 0.00 91 1013.1
20210623042600 54 281 0.0 2.0 0.00 0.00 0.00 90 1012.9
20210623042044 54 281 0.0 2.0 0.00 0.00 0.00 91 1012.9
20210623041527 54 326 0.0 0.0 0.00 0.00 0.00 91 1012.9
20210623041021 54 326 0.0 0.0 0.00 0.00 0.00 91 1012.8
20210623040449 54 326 0.0 0.0 0.00 0.00 0.00 91 1012.8
20210623035947 54 326 0.0 0.0 0.00 0.00 0.00 90 1012.7
20210623035445 55 326 0.0 0.0 0.00 0.00 0.00 90 1012.7
20210623034935 55 326 0.0 0.0 0.00 0.00 0.00 90 1012.7
20210623034421 55 326 0.0 0.0 0.00 0.00 0.00 89 1012.7
20210623033911 55 326 0.0 0.0 0.00 0.00 0.00 89 1012.6
20210623033358 55 326 0.0 0.0 0.00 0.00 0.00 89 1012.6
20210623032845 55 326 0.0 0.0 0.00 0.00 0.00 89 1012.5
20210623032343 56 326 0.0 0.0 0.00 0.00 0.00 88 1012.4
20210623031841 56 326 0.0 0.0 0.00 0.00 0.00 88 1012.4
20210623031331 56 326 0.0 0.0 0.00 0.00 0.00 87 1012.3
20210623030817 56 326 0.0 0.0 0.00 0.00 0.00 87 1012.1
20210623030305 56 326 0.0 0.0 0.00 0.00 0.00 85 1012.0
20210623025751 56 326 0.0 0.0 0.00 0.00 0.00 86 1012.1
20210623025241 56 326 0.0 0.0 0.00 0.00 0.00 85 1011.9
20210623024727 57 331 0.0 0.0 0.00 0.00 0.00 84 1011.8
20210623024426 57 331 0.0 1.0 0.00 0.00 0.00 82 1011.7
20210623023703 57 330 0.0 3.0 0.00 0.00 0.00 82 1011.7
20210623023155 57 332 0.0 4.0 0.00 0.00 0.00 79 1011.6
20210623022146 57 33 0.0 2.0 0.00 0.00 0.00 84 1011.5
20210623021645 57 33 0.0 2.0 0.00 0.00 0.00 83 1011.5
20210623021143 57 34 0.0 0.0 0.00 0.00 0.00 82 1011.4
20210623020625 57 322 0.0 2.0 0.00 0.00 0.00 81 1011.4
20210623020120 57 321 0.0 2.0 0.00 0.00 0.00 80 1011.2
20210623015616 58 350 0.0 0.0 0.00 0.00 0.00 85 1011.0
20210623015045 58 355 1.0 6.0 0.00 0.00 0.00 81 1010.9
20210623014543 58 70 1.0 8.0 0.00 0.00 0.00 81 1010.8
20210623014037 58 264 1.0 8.0 0.00 0.00 0.00 81 1010.6
20210623013531 57 284 1.0 5.0 0.00 0.00 0.00 82 1010.5
20210623013009 57 273 0.0 4.0 0.00 0.00 0.00 85 1010.3
20210623012506 57 268 0.0 2.0 0.00 0.00 0.00 88 1010.3
20210623011947 58 268 0.0 2.0 0.00 0.00 0.00 88 1010.2
20210623011440 58 268 0.0 2.0 0.00 0.00 0.00 87 1010.0
20210623010931 58 259 0.0 4.0 0.00 0.00 0.00 86 1009.8
20210623010417 58 282 0.0 4.0 0.00 0.00 0.00 85 1009.7
20210623005911 59 355 0.0 0.0 0.00 0.00 0.00 83 1009.5
20210623005404 59 355 0.0 4.0 0.00 0.00 0.00 83 1009.4
20210623004853 59 355 1.0 5.0 0.00 0.00 0.00 83 1009.3
20210623004347 59 286 1.0 5.0 0.00 0.00 0.00 83 1009.1
20210623003844 60 262 0.0 2.0 0.00 0.00 0.00 86 1008.9
20210623003342 60 254 1.0 2.0 0.00 0.00 0.00 86 1008.8
20210623002841 60 254 1.0 5.0 0.00 0.00 0.00 84 1008.8
20210623002322 60 337 2.0 7.0 0.00 0.00 0.00 84 1008.8
20210623001817 60 288 2.0 7.0 0.00 0.00 0.00 84 1008.7
20210623001313 60 355 1.0 6.0 0.00 0.00 0.00 85 1008.7
20210623000803 60 289 1.0 4.0 0.00 0.00 0.00 86 1008.5
20210623000247 61 313 1.0 4.0 0.00 0.00 0.00 86 1008.5
20210622235735 61 14 0.0 2.0 0.00 0.00 0.00 85 1008.4
20210622235233 61 25 0.0 2.0 0.00 0.00 0.00 86 1008.4
20210622234731 61 27 0.0 2.0 0.00 0.00 0.00 84 1008.3
20210622234229 61 27 1.0 4.0 0.00 0.00 0.00 83 1008.1
20210622233717 61 17 1.0 4.0 0.00 0.00 0.00 82 1008.0
20210622233207 61 292 1.0 5.0 0.00 0.00 0.00 83 1007.8
20210622232705 61 30 2.0 7.0 0.00 0.00 0.00 83 1007.8